| time (UTC) | temp F | wind direction | speed knots | gust knots | rain 1hr in | rain 24hr in | rain mn in | humidity % | barometer mb |
| 20260906120022 | 65 | 276 | 0.0 | 0.0 | 0.00 | 0.00 | 0.00 | 95 | 1017.0 |
| 20260906111509 | 65 | 46 | 0.0 | 0.0 | 0.00 | 0.00 | 0.00 | 95 | 1016.4 |
| 20260906104618 | 65 | 46 | 0.0 | 0.0 | 0.00 | 0.00 | 0.00 | 96 | 1016.4 |
| 20260906103008 | 65 | 46 | 0.0 | 0.0 | 0.00 | 0.00 | 0.00 | 96 | 1016.4 |
| 20260906100011 | 65 | 46 | 0.0 | 0.0 | 0.00 | 0.00 | 0.00 | 95 | 1016.1 |
| 20260906090005 | 64 | 46 | 0.0 | 0.0 | 0.00 | 0.00 | 0.00 | 95 | 1015.7 |
| 20260906083011 | 64 | 46 | 0.0 | 0.0 | 0.00 | 0.00 | 0.00 | 93 | 1015.5 |
| 20260906081459 | 65 | 46 | 0.0 | 0.0 | 0.00 | 0.00 | 0.00 | 92 | 1015.4 |
| 20260906074458 | 65 | 20 | 0.0 | 0.9 | 0.00 | 0.00 | 0.00 | 93 | 1015.4 |
| 20260906073002 | 66 | 238 | 0.0 | 0.0 | 0.00 | 0.00 | 0.00 | 94 | 1015.3 |
| 20260906064500 | 66 | 238 | 0.0 | 0.0 | 0.00 | 0.00 | 0.00 | 93 | 1015.8 |
| 20260906061501 | 67 | 238 | 0.0 | 0.9 | 0.00 | 0.00 | 0.00 | 92 | 1016.1 |
| 20260906053008 | 67 | 359 | 0.0 | 0.0 | 0.00 | 0.00 | 0.00 | 86 | 1016.3 |
| 20260906051502 | 67 | 359 | 0.0 | 0.0 | 0.00 | 0.00 | 0.00 | 85 | 1016.2 |
| 20260906050002 | 68 | 1 | 0.0 | 0.0 | 0.00 | 0.00 | 0.00 | 84 | 1016.2 |
| 20260906040010 | 70 | 16 | 0.0 | 0.9 | 0.00 | 0.00 | 0.00 | 81 | 1016.5 |
| 20260906034508 | 71 | 28 | 0.0 | 0.0 | 0.00 | 0.00 | 0.00 | 79 | 1016.8 |
| 20260906033003 | 71 | 346 | 0.0 | 1.7 | 0.00 | 0.00 | 0.00 | 78 | 1016.9 |
| 20260906031509 | 71 | 20 | 0.0 | 2.6 | 0.00 | 0.00 | 0.00 | 78 | 1016.8 |
| 20260906030012 | 71 | 58 | 0.0 | 2.6 | 0.00 | 0.00 | 0.00 | 78 | 1016.8 |
| 20260906023006 | 71 | 191 | 0.0 | 0.9 | 0.00 | 0.00 | 0.00 | 78 | 1016.7 |
| 20260906021506 | 72 | 6 | 0.0 | 2.6 | 0.00 | 0.00 | 0.00 | 76 | 1016.6 |
| 20260906021241 | 72 | 319 | 0.0 | 2.6 | 0.00 | 0.00 | 0.00 | 76 | 1016.5 |
| 20260906014503 | 73 | 326 | 0.0 | 2.6 | 0.00 | 0.00 | 0.00 | 75 | 1016.5 |
| 20260906013015 | 73 | 32 | 0.0 | 3.5 | 0.00 | 0.00 | 0.00 | 76 | 1016.4 |
| 20260906011504 | 74 | 46 | 0.0 | 2.6 | 0.00 | 0.00 | 0.00 | 74 | 1016.3 |
| 20260906010008 | 74 | 217 | 0.0 | 2.6 | 0.00 | 0.00 | 0.00 | 73 | 1016.1 |
| 20260906004503 | 74 | 35 | 1.7 | 5.2 | 0.00 | 0.00 | 0.00 | 72 | 1016.2 |
| 20260905234500 | 75 | 195 | 0.9 | 3.5 | 0.00 | 0.00 | 0.00 | 68 | 1015.5 |
| 20260905233004 | 75 | 184 | 1.7 | 7.0 | 0.00 | 0.00 | 0.00 | 67 | 1015.5 |
| 20260905231501 | 75 | 1 | 0.9 | 5.2 | 0.00 | 0.00 | 0.00 | 67 | 1015.8 |
| 20260905230014 | 76 | 339 | 0.9 | 5.2 | 0.00 | 0.00 | 0.00 | 68 | 1015.7 |
| 20260905224501 | 77 | 36 | 0.9 | 6.1 | 0.00 | 0.00 | 0.00 | 66 | 1015.8 |
| 20260905223001 | 78 | 312 | 0.9 | 8.7 | 0.00 | 0.00 | 0.00 | 63 | 1015.7 |
| 20260905221505 | 78 | 274 | 1.7 | 5.2 | 0.00 | 0.00 | 0.00 | 63 | 1015.5 |
| 20260905214509 | 78 | 323 | 0.0 | 2.6 | 0.00 | 0.00 | 0.00 | 66 | 1015.5 |
| 20260905213001 | 79 | 311 | 0.9 | 3.5 | 0.00 | 0.00 | 0.00 | 65 | 1015.4 |
| 20260905210004 | 78 | 328 | 0.9 | 3.5 | 0.00 | 0.00 | 0.00 | 63 | 1015.2 |
| 20260905204502 | 78 | 128 | 0.9 | 6.1 | 0.00 | 0.00 | 0.00 | 63 | 1015.2 |
| 20260905203001 | 78 | 313 | 1.7 | 6.1 | 0.00 | 0.00 | 0.00 | 61 | 1015.2 |
| 20260905201500 | 79 | 341 | 1.7 | 6.1 | 0.00 | 0.00 | 0.00 | 61 | 1015.2 |
| 20260905200004 | 79 | 330 | 2.6 | 8.7 | 0.00 | 0.00 | 0.00 | 62 | 1014.8 |
| 20260905194502 | 79 | 311 | 2.6 | 6.1 | 0.00 | 0.00 | 0.00 | 67 | 1014.9 |
| 20260905193003 | 78 | 314 | 0.9 | 7.0 | 0.00 | 0.00 | 0.00 | 67 | 1014.9 |
| 20260905191500 | 78 | 259 | 0.9 | 6.1 | 0.00 | 0.00 | 0.00 | 69 | 1015.2 |
| 20260905190008 | 77 | 343 | 3.5 | 7.8 | 0.00 | 0.00 | 0.00 | 72 | 1015.3 |
| 20260905183007 | 76 | 275 | 2.6 | 7.0 | 0.00 | 0.00 | 0.00 | 76 | 1016.3 |
| 20260905181503 | 76 | 169 | 1.7 | 5.2 | 0.00 | 0.00 | 0.00 | 75 | 1016.3 |
| 20260905180005 | 76 | 203 | 133.8 | 569.2 | 3.38 | 0.00 | 0.00 | 74 | |
| 20260905174503 | 76 | 31 | 0.0 | 0.9 | 0.00 | 0.00 | 0.00 | 76 | 1016.4 |
| 20260905173001 | 77 | 20 | 0.0 | 1.7 | 0.00 | 0.00 | 0.00 | 73 | 1016.0 |
| 20260905171459 | 78 | 73 | 0.0 | 0.9 | 0.00 | 0.00 | 0.00 | 72 | 1016.6 |
| 20260905170001 | 78 | 39 | 0.0 | 2.6 | 0.00 | 0.00 | 0.00 | 71 | 1016.9 |
| 20260905164504 | 78 | 329 | 0.9 | 1.7 | 0.00 | 0.00 | 0.00 | 73 | 1017.2 |
| 20260905160000 | 75 | 330 | 1.7 | 7.8 | 0.00 | 0.00 | 0.00 | 75 | 1017.8 |
| 20260905154459 | 75 | 200 | 0.9 | 7.0 | 0.00 | 0.00 | 0.00 | 80 | 1017.9 |
| 20260905153000 | 74 | 328 | 2.6 | 11.3 | 0.00 | 0.00 | 0.00 | 82 | 1018.0 |
| 20260905151501 | 76 | 355 | 6.1 | 10.4 | 0.00 | 0.00 | 0.00 | 80 | 1018.0 |
| 20260905144500 | 77 | 357 | 1.7 | 7.8 | 0.00 | 0.00 | 0.00 | 78 | 1017.6 |
| 20260905143000 | 77 | 340 | 2.6 | 10.4 | 0.00 | 0.00 | 0.00 | 76 | 1017.7 |
| 20260905140004 | 76 | 330 | 1.7 | 7.8 | 0.00 | 0.00 | 0.00 | 74 | 1017.7 |
| 20260905134501 | 76 | 71 | 0.9 | 7.0 | 0.00 | 0.00 | 0.00 | 77 | 1017.5 |
| 20260905132959 | 75 | 53 | 0.0 | 6.1 | 0.00 | 0.00 | 0.00 | 80 | 1017.4 |
| 20260905131500 | 75 | 252 | 0.0 | 5.2 | 0.00 | 0.00 | 0.00 | 82 | 1017.3 |
| 20260905130005 | 74 | 160 | 0.9 | 4.3 | 0.00 | 0.00 | 0.00 | 83 | 1017.3 |
| 20260905123002 | 73 | 129 | 0.9 | 4.3 | 0.00 | 0.00 | 0.00 | 85 | 1017.3 |